Regional Weather Roundup
Issued by NWS

Home | Current Version | Previous Version | Graphics & Text | Print | Product List | Glossary On
Versions: 1 2 3 4 5 6 7 8 9 10 11 12 13 14 15 16 17 18 19 20 21 22 23 24 25 26 27 28 29 30 31 32 33 34 35 36 37 38 39 40 41 42 43 44 45 46 47 48 49 50
000
ASUS43 KFSD 021002
RWRSD

WEATHER ROUNDUP FOR SOUTH DAKOTA
NATIONAL WEATHER SERVICE SIOUX FALLS SD
500 AM CDT MON MAY 02 2016

NOTE: "FAIR" INDICATES FEW OR NO CLOUDS BELOW 12,000 FEET WITH NO
SIGNIFICANT WEATHER AND/OR OBSTRUCTIONS TO VISIBILITY.


SDZ001>005-009-010-012>017-021100-
NORTHWEST AND NORTH CENTRAL SOUTH DAKOTA

CITY           SKY/WX    TMP DP  RH WIND       PRES   REMARKS
BUFFALO          N/A     39  29  67 N6        30.09S
FAITH            N/A     40  31  70 SW10      30.13F
MOBRIDGE       MOCLDY    47  35  63 CALM      30.09F
$$

SDZ012>016-024>037-041>051-057-063-072>074-021100-
SOUTHWEST AND SOUTH CENTRAL SOUTH DAKOTA

CITY           SKY/WX    TMP DP  RH WIND       PRES   REMARKS
RAPID CTY ARPT CLEAR     35  28  75 W7        30.17F WCI  29
PIERRE         PTCLDY    38  32  79 W9        30.14S
CUSTER         CLEAR     31  23  72 NW7       30.20F WCI  24
PHILIP         CLEAR     34  31  88 W6        30.16F WCI  29
PINE RIDGE     CLEAR     26  23  88 CALM      30.20F
WINNER         FAIR      42  31  64 SW6       30.16F
$$

SDZ004>011-016>023-039-040-021100-
NORTHEAST SOUTH DAKOTA

CITY           SKY/WX    TMP DP  RH WIND       PRES   REMARKS
ABERDEEN       CLOUDY    37  32  82 S8        30.11F
WATERTOWN      CLEAR     35  32  88 CALM      30.12S
BROOKINGS      CLEAR     34  32  92 CALM      30.13S
SISSETON         N/A     48  34  58 W10       30.08F
$$

SDZ017-020-022-023-036>040-048>070-021100-
SOUTHEAST SOUTH DAKOTA

CITY           SKY/WX    TMP DP  RH WIND       PRES   REMARKS
SIOUX FALLS    CLEAR     35  33  92 CALM      30.14S
HURON          CLEAR     38  33  82 CALM      30.13F
MITCHELL       CLEAR     40  35  83 W5        30.14F
YANKTON        CLEAR     39  34  81 SW3       30.15S
$$

ABBREVIATIONS USED IN REMARKS
   TC - TEMPERATURE IN CELSIUS
  WCI - WIND CHILL INDEX
   HX - HEAT INDEX
  VSB - VISIBILITY





USA.gov is the U.S. government's official web portal to all federal, state and local government web resources and services.